Weather in Esso

Russia / Kamchatka Krai     55°55′41″N   158°42′27″E
temp.,
°C
wind,
m/s
gust,
m/s
humid.,
%
clouds,
%
prec.,
mm/h
press.,
hPa
HPBL,
m
28 february, sun
sun2800:00−18se119998 0.6 101420
03:00−16ese1197100 0.1 101320
06:00−17sse1196100 0.2 101220
09:00−17w0192100 0.0 101120
12:00−13ne1288100 0.0 1008189
15:00−11nne1389100 0.1 1005389
18:00−12nnw3491100 0.4 1002274
21:00−15nw2387100 0.1 100122
1 march, mon
mon100:00−15nw3385100 0.1 99925
03:00−16nw3390100 0.0 99742
06:00−17wnw2289100 0.0 99721
09:00−17wnw2291100 0.0 99724
12:00−13nw2291100 0.3 997292
15:00−12nw2389100 0.4 997438
18:00−14wnw2395100 0.8 997245
21:00−16wnw2297100 0.6 100047
2 march, tue
tue200:00−18nw2297100 1.1 100355
03:00−19nw2297100 0.3 100566
06:00−21nw2296100 0.3 100831
09:00−22wnw2294100 0.0 101326
12:00−19w2388100 0.1 1015286
15:00−15w2673100 0.0 1016799
18:00−17s228796 0.0 101921
21:00−18wsw129698 0.2 102325
3 march, wed
wed300:00−22wsw229799 0.3 102620
03:00−22sw2289100 0.0 102620
06:00−20se2283100 0.0 102525
09:00−18se3597100 0.1 1021219
12:00−16se6994100 1.1 1013513
15:00−14se6995100 0.9 1003426
18:00−13se5895100 3.3 994345
21:00−12se4695100 6.3 985257
4 march, thu
thu400:00−10se3696100 12.9 973252
03:00−8s5894100 5.9 971318
06:00−18wsw14217965 5.9 982888
09:00−18w13228437 0.1 9901583
12:00−19w14228259 0.4 9941833
15:00−18w162582100 0.2 9981931
18:00−17wsw8198599 0.4 10001819
21:00−22s339756 0.1 99938